GFSNIL_con_3kmhel_000.txt.gz
Helicity
111 94 82 87 113 161 228 247 270 304 317 330 382 421 440 515 612 691 645 556 321 248
63 48 68 111 150 216 274 289 307 276 230 187 189 191 224 191 128 273 85 -59 -115 -117
67 87 115 145 147 230 281 267 234 205 197 145 88 107 82 42 67 -61 -13 39 25 51
66 53 68 108 179 227 268 276 241 213 223 200 133 96 69 63 62 63 74 84 86 81
54 48 111 198 276 314 351 296 298 314 230 179 155 130 103 86 81 74 74 72 87 83
52 100 180 293 341 359 352 347 316 219 115 78 83 96 95 85 83 72 75 88 101 97
124 128 195 249 300 313 317 240 157 118 113 84 77 88 87 101 111 96 84 77 77 82
149 140 149 163 189 169 117 101 106 88 53 93 101 94 135 139 118 101 90 81 82 75
143 135 144 180 165 107 127 125 107 114 112 99 109 115 126 113 92 84 85 90 72 67
289 214 153 132 109 94 87 90 97 106 121 119 113 121 103 91 93 94 95 86 78 65
117 107 82 75 88 101 105 101 96 96 107 106 94 96 87 79 96 102 94 76 64 66
103 121 107 92 73 76 78 80 91 89 82 78 65 62 59 67 83 81 64 48 56 74
135 116 91 79 71 76 90 99 88 77 69 53 57 41 52 64 62 48 37 50 57 37
98 79 84 79 86 92 96 86 80 71 59 57 47 43 46 56 45 35 31 45 56 41

GFSNIL_con_3kmhel_003.txt.gz
Helicity
129 100 49 40 69 106 110 158 194 208 204 212 229 224 211 173 199 253 292 361 410 406
93 55 45 51 82 96 142 245 288 283 260 246 250 224 212 133 122 63 45 -40 34 39
74 53 45 56 82 129 238 285 270 255 274 304 314 302 291 260 156 17 -30 7 -2 -7
73 45 80 110 141 197 246 257 269 286 296 281 229 204 44 33 38 33 37 28 22 25
77 118 93 144 220 260 262 276 255 255 246 137 73 29 53 81 70 55 51 55 63 68
89 91 115 153 213 247 255 271 243 138 57 60 81 84 97 95 60 55 49 55 62 75
165 133 138 156 170 194 180 152 110 103 120 118 106 91 91 88 79 77 76 72 73 76
117 162 156 157 149 145 140 115 99 97 97 104 108 100 85 85 95 93 85 75 70 72
110 69 92 106 119 114 88 92 106 113 109 97 95 119 118 127 90 75 67 65 60 61
97 103 119 145 113 94 88 85 80 77 84 98 115 128 107 99 77 71 65 60 55 46
118 115 133 110 86 74 69 64 63 76 96 92 84 85 83 76 65 68 58 46 33 36
122 103 103 78 72 63 62 65 81 86 75 70 66 71 60 63 61 51 39 31 31 27
91 91 73 73 66 74 76 83 86 76 72 65 58 48 55 62 59 42 29 19 16 18
82 73 77 79 82 85 81 86 82 73 67 60 58 55 57 68 65 50 19 9 11 17

GFSNIL_con_3kmhel_006.txt.gz
Helicity
185 170 159 144 101 63 47 52 128 160 205 235 219 197 190 274 343 301 206 130 112 76
163 149 117 89 48 30 59 128 145 182 211 263 265 280 265 275 252 308 281 186 82 58
156 137 111 63 57 98 107 121 161 205 211 209 192 220 197 129 97 57 48 38 32 33
117 85 80 103 124 126 127 141 153 151 152 179 197 107 76 26 -0 24 66 63 34 32
66 92 108 119 124 123 128 120 147 184 187 102 51 54 76 80 75 79 78 84 81 73
98 95 109 119 104 89 109 124 107 89 87 92 93 86 85 84 92 99 104 107 104 93
117 131 123 111 79 65 85 102 112 103 86 103 99 89 85 97 107 104 103 98 92 92
130 121 101 93 98 108 121 101 93 87 86 75 70 105 125 95 113 95 86 78 71 72
136 140 142 111 88 106 94 87 75 77 72 70 84 191 139 117 93 84 70 67 63 64
173 164 148 107 99 89 77 68 67 70 79 81 74 168 107 95 77 73 59 55 56 50
191 157 124 98 79 63 65 66 68 80 79 72 72 127 96 73 59 64 53 46 37 34
158 127 98 68 65 64 67 68 79 81 78 70 79 119 99 82 76 64 50 40 32 39
123 103 66 59 61 67 70 78 100 92 79 92 80 102 98 85 77 54 43 35 21 6
112 83 58 64 69 75 80 89 118 98 94 75 108 71 64 66 69 59 36 13 4 -0

GFSNIL_con_3kmhel_012.txt.gz
Helicity
316 256 186 195 157 114 107 90 56 122 155 267 279 272 252 205 166 135 116 124 122 105
298 267 196 162 110 74 122 133 144 125 181 192 187 177 162 131 145 97 105 102 91 94
213 222 158 85 78 217 182 115 128 133 135 159 129 105 99 85 78 85 87 78 76 63
166 118 118 158 228 225 133 123 105 124 114 108 109 112 90 62 60 65 76 81 74 89
141 190 212 211 203 145 94 83 93 99 124 134 135 116 91 86 76 88 90 92 106 86
185 246 220 134 124 105 110 127 150 148 133 113 99 98 98 102 137 159 123 114 118 137
314 302 187 212 181 191 180 175 153 132 122 116 111 93 140 143 111 89 69 55 68 67
248 229 387 252 209 211 182 161 162 130 108 93 93 135 129 96 79 80 86 75 71 73
206 165 369 187 168 197 190 198 146 133 108 105 125 192 169 135 98 88 91 71 68 85
349 246 227 141 195 200 253 182 151 122 139 192 190 212 188 142 94 80 84 90 89 74
119 177 71 209 195 267 243 160 124 129 188 218 175 144 145 147 115 91 70 78 62 50
116 282 60 178 241 276 170 128 156 163 183 165 138 102 125 113 136 103 82 68 64 58
185 145 227 251 223 128 130 151 168 171 115 94 134 127 162 169 147 105 73 53 33 22
103 49 81 153 168 105 165 155 158 130 110 131 129 164 143 141 136 99 61 46 36 29

GFSNIL_con_3kmhel_015.txt.gz
Helicity
340 343 313 242 169 137 168 124 84 60 85 103 103 106 127 136 118 97 100 92 102 103
269 238 238 158 239 213 140 95 61 64 97 104 95 93 98 126 117 98 94 100 100 92
169 102 181 276 230 180 126 73 88 99 83 88 97 101 104 110 96 92 86 103 101 104
129 221 253 201 219 196 121 152 72 61 105 115 126 111 83 64 56 65 79 104 112 105
164 310 238 238 258 243 144 73 100 142 148 160 130 90 75 67 75 69 53 35 31 31
270 324 209 158 316 300 156 159 190 185 160 144 107 84 85 93 65 44 28 14 11 15
179 204 241 265 347 385 124 188 188 180 172 156 123 147 137 125 102 66 37 27 33 34
163 228 298 304 482 233 45 159 193 179 161 174 163 171 176 149 100 58 53 44 23 21
228 192 209 193 155 25 141 191 159 151 186 206 167 182 165 141 116 103 95 90 67 47
68 33 17 68 75 58 225 213 168 158 224 143 148 172 142 144 162 131 114 96 78 66
17 1 49 125 45 203 267 179 199 194 138 139 121 111 111 177 150 149 113 100 74 67
79 76 115 108 139 194 159 164 192 136 130 97 69 85 207 153 140 138 118 85 60 49
61 95 82 84 41 100 157 197 157 133 84 38 90 184 164 170 191 148 93 50 36 12
89 92 85 98 102 121 179 176 127 92 58 82 134 136 161 185 137 83 72 69 67 53

GFSNIL_con_3kmhel_018.txt.gz
Helicity
196 156 115 90 112 133 102 115 61 40 23 31 54 71 80 103 131 156 203 163 129 111
91 65 88 156 188 155 169 128 115 59 80 79 61 56 80 119 137 158 144 88 76 78
96 91 128 203 166 185 205 165 114 106 77 71 73 86 115 133 142 157 123 78 77 78
94 119 189 193 198 218 226 240 159 257 130 70 78 86 102 99 145 142 107 78 60 28
131 180 198 214 222 236 187 178 157 164 136 94 89 109 111 125 148 141 112 75 48 23
184 188 172 165 175 227 380 307 276 96 90 112 103 145 143 168 158 130 93 57 31 19
112 86 122 167 235 240 269 124 111 68 128 104 162 181 198 165 141 102 83 59 65 65
57 100 76 58 148 136 105 106 71 108 147 146 182 169 160 144 112 90 97 106 102 88
62 77 43 43 92 88 118 185 134 178 159 153 158 147 125 110 116 130 127 114 114 114
109 65 30 72 108 138 103 71 223 176 177 135 128 106 108 174 153 143 130 140 124 97
92 40 31 81 115 134 74 147 113 129 116 123 120 120 131 140 139 145 143 109 82 85
70 50 54 115 91 79 91 139 136 122 142 118 88 112 129 157 140 129 96 68 68 71
68 78 95 100 114 120 114 135 149 142 127 115 88 101 115 138 144 109 76 69 71 48
87 101 122 110 129 122 137 133 119 110 74 77 89 80 93 94 127 97 74 83 88 97

GFSNIL_con_3kmhel_021.txt.gz
Helicity
155 160 152 143 159 137 158 150 124 111 120 177 164 79 113 77 64 82 111 133 126 135
81 101 116 78 120 123 151 153 151 213 285 145 142 139 83 84 74 69 99 129 139 137
113 96 98 133 142 175 179 209 249 253 129 112 151 139 103 59 48 75 112 122 123 111
143 160 144 134 143 172 186 195 196 182 109 188 139 110 94 63 70 99 120 120 115 100
133 106 89 103 136 150 212 233 241 219 196 82 136 113 84 92 161 152 138 120 110 99
109 83 69 88 134 170 194 210 256 191 148 129 94 91 121 167 205 169 139 126 114 116
101 88 106 131 113 132 175 175 134 124 88 138 122 147 176 161 171 149 138 133 141 151
80 95 97 93 91 110 133 134 109 180 177 169 157 143 142 157 137 132 141 152 154 153
125 118 113 85 74 81 119 141 166 110 146 147 133 123 122 127 131 143 143 148 152 147
129 116 94 73 83 93 111 119 93 119 164 141 134 129 142 146 142 125 136 147 135 112
121 126 100 92 84 86 104 116 129 157 135 126 115 139 121 126 118 117 128 119 99 96
143 129 105 98 85 101 102 117 136 133 125 130 120 117 104 110 102 105 111 86 83 76
140 129 94 88 90 107 123 147 136 122 128 137 113 87 88 85 91 108 110 84 69 58
128 119 103 99 114 136 155 142 123 117 109 109 95 76 76 71 80 96 115 84 70 82

GFSNIL_con_3kmhel_024.txt.gz
Helicity
126 131 123 123 143 139 142 124 130 158 168 158 142 144 142 145 129 118 78 43 52 91
96 94 103 107 116 143 156 178 187 202 224 214 180 121 154 176 102 103 95 62 98 123
127 122 116 129 142 154 168 192 208 233 229 194 154 169 181 117 144 99 92 129 131 136
152 152 150 147 140 138 156 159 194 233 230 207 195 156 163 134 114 121 135 133 154 131
151 147 142 129 117 124 136 157 176 207 203 162 139 121 126 128 133 162 153 151 149 131
127 120 120 115 116 114 129 149 164 168 150 128 149 139 144 142 177 164 153 141 134 136
110 114 115 105 106 109 117 139 134 123 129 148 195 158 155 172 157 142 139 138 152 161
106 117 116 115 108 110 130 127 127 134 140 140 163 150 170 147 127 123 125 130 133 154
149 147 138 128 124 122 121 123 125 142 158 169 169 174 149 138 121 120 123 118 126 144
164 139 124 126 124 123 102 103 122 153 168 156 128 139 118 102 113 116 104 102 117 112
145 133 122 124 125 116 115 120 125 153 141 127 118 109 102 111 107 103 90 94 113 106
135 132 132 127 112 101 114 123 146 147 134 120 101 110 105 103 93 85 78 82 123 99
142 141 134 124 109 112 128 148 164 151 122 113 105 99 90 88 95 94 88 89 100 70
160 151 133 125 121 131 157 167 165 140 106 104 106 82 76 69 99 94 87 85 93 81

GFSNIL_con_3kmhel_027.txt.gz
Helicity
172 164 142 122 111 110 113 123 142 171 178 158 163 179 127 117 145 148 125 78 105 73
128 130 136 121 114 118 126 142 142 136 132 159 196 181 148 171 164 159 135 114 85 90
149 137 118 118 130 145 142 125 122 125 156 186 227 175 153 162 119 117 108 124 112 105
157 136 127 137 137 141 128 114 125 136 145 180 190 159 104 100 99 113 109 132 137 134
134 134 147 148 135 116 106 109 116 133 148 179 142 107 110 127 127 119 138 146 145 126
142 157 142 117 103 97 104 113 125 138 145 129 135 159 168 159 137 145 140 128 118 118
136 123 123 112 105 108 115 121 140 154 138 143 145 154 151 146 135 117 113 112 118 121
118 141 128 125 118 115 111 126 151 164 175 152 147 146 130 119 99 97 94 96 99 109
140 135 136 130 123 110 114 113 120 132 125 144 161 162 138 94 83 81 83 90 89 93
135 144 142 123 114 110 129 134 142 128 133 148 141 117 102 87 71 74 84 87 87 88
150 142 127 117 115 126 127 127 121 130 141 134 119 102 85 75 74 79 81 79 80 80
143 138 128 123 120 119 124 127 128 133 141 127 105 92 82 66 75 73 71 78 69 67
143 150 147 127 123 127 127 128 145 152 144 126 91 88 78 70 74 72 75 60 57 65
147 160 161 147 141 131 140 155 155 154 134 99 86 85 73 67 71 78 76 71 62 68

GFSNIL_con_3kmhel_030.txt.gz
Helicity
162 140 163 161 116 100 104 121 148 143 139 130 132 143 153 123 87 82 112 127 99 109
133 145 148 133 115 120 119 134 130 112 108 109 126 143 130 83 81 91 122 95 104 115
134 146 129 109 115 128 129 121 116 109 109 121 133 129 92 102 73 91 94 90 105 102
117 125 109 117 136 145 125 109 98 98 99 108 121 120 104 80 102 110 93 93 90 97
134 116 120 136 133 120 100 93 88 94 95 104 121 108 107 120 152 119 92 97 98 82
120 109 127 122 106 100 97 93 90 101 121 139 151 124 148 125 127 97 100 92 80 83
116 115 111 124 116 110 106 94 108 120 127 141 152 143 123 110 96 84 76 75 78 88
109 104 122 128 114 113 109 108 102 124 132 120 118 142 120 94 68 57 64 68 78 89
109 115 121 121 111 112 107 107 118 136 138 134 135 178 129 79 57 56 61 70 74 82
126 121 119 114 111 105 110 115 138 127 129 125 155 146 111 73 44 63 68 69 75 81
124 114 114 116 120 109 114 125 131 131 136 115 172 136 91 52 38 56 65 72 73 69
119 111 110 119 133 119 133 121 122 145 130 113 136 128 76 43 55 60 59 68 69 79
107 104 109 128 133 145 126 123 131 143 135 161 116 133 76 56 56 60 60 61 64 84
91 106 111 129 138 128 113 138 144 151 139 121 106 98 88 69 54 62 69 64 61 65

GFSNIL_con_3kmhel_033.txt.gz
Helicity
236 185 163 173 201 169 160 150 151 120 116 101 93 99 115 175 200 112 92 94 107 153
266 272 129 190 158 134 133 130 128 125 110 99 97 109 123 148 184 108 104 110 104 102
210 9 133 139 141 135 129 124 120 114 102 100 104 103 93 140 94 74 103 112 117 124
117 113 125 135 136 136 137 122 111 101 103 102 78 91 171 92 60 92 122 153 116 77
47 109 132 129 137 142 127 110 95 102 92 92 139 142 112 136 184 191 171 135 127 137
85 112 122 133 143 136 119 102 92 89 106 120 117 120 129 176 171 120 117 112 85 77
178 134 129 128 138 126 117 98 87 100 129 146 85 155 143 146 150 133 89 79 77 72
168 133 111 119 115 123 112 97 89 105 163 126 132 154 192 138 118 105 73 70 63 71
146 110 104 110 124 94 101 104 93 132 140 136 152 307 210 136 100 69 60 65 73 76
113 96 81 105 100 100 117 116 101 125 146 126 181 277 194 126 75 52 66 68 70 79
96 80 92 86 93 104 115 121 112 149 152 139 228 284 181 103 49 54 60 67 68 78
60 102 94 91 93 125 129 123 114 118 148 149 216 272 185 99 60 53 60 59 66 108
97 99 86 88 95 116 125 105 126 124 136 183 215 223 171 104 66 60 52 53 71 148
60 75 81 99 111 112 101 130 152 168 136 136 181 151 157 111 69 58 61 61 68 80

GFSNIL_con_3kmhel_036.txt.gz
Helicity
367 336 383 422 360 212 242 247 217 175 167 148 149 142 133 149 167 196 240 189 135 112
392 442 386 279 239 145 234 177 207 186 170 157 149 134 122 133 135 173 200 147 111 135
395 347 298 312 194 202 180 183 158 157 152 142 131 118 122 165 184 176 139 93 146 151
419 371 288 195 169 201 189 153 156 143 138 121 116 182 164 163 176 207 222 232 231 225
355 241 139 253 153 202 186 159 144 139 120 117 174 187 177 147 166 204 228 188 174 152
260 287 207 132 188 223 205 174 150 137 131 122 211 149 170 158 167 157 172 137 134 141
474 132 325 179 216 228 187 178 139 136 127 185 218 171 168 150 164 174 168 155 150 126
299 273 192 181 182 157 178 149 131 127 109 219 197 155 232 233 208 203 162 121 116 118
177 386 199 172 156 133 120 123 141 148 123 221 213 270 249 233 200 157 117 104 115 110
431 237 188 149 122 119 133 151 128 122 145 193 252 275 251 231 180 142 99 103 102 94
199 173 144 118 107 89 103 145 163 145 117 176 219 288 258 218 164 113 98 95 100 93
214 219 110 112 110 111 128 145 162 135 103 151 268 278 279 227 165 122 104 91 74 88
127 95 76 88 91 117 129 147 144 185 220 237 261 237 237 205 159 138 104 72 80 131
75 74 48 63 122 134 125 118 127 182 193 193 209 223 216 172 158 126 114 100 74 113

GFSNIL_con_3kmhel_039.txt.gz
Helicity
448 502 542 534 496 456 430 365 421 251 222 200 171 153 138 135 146 165 197 255 240 214
484 529 509 472 420 407 289 308 356 291 211 172 144 129 139 156 184 182 173 178 162 204
469 430 410 406 445 262 442 217 277 222 197 156 127 147 186 155 145 160 162 161 218 233
475 437 350 339 454 479 257 234 202 168 140 125 125 174 149 134 112 168 199 208 211 190
511 402 326 312 428 259 242 210 179 151 137 120 149 157 153 158 152 165 166 166 167 148
459 336 436 484 220 262 210 224 210 165 137 143 165 188 172 153 166 174 160 167 170 146
457 489 473 349 411 163 205 219 179 139 120 115 197 196 165 182 240 234 206 177 157 146
570 601 609 351 233 254 164 122 116 100 97 127 187 204 184 209 228 209 185 157 132 155
636 545 410 432 417 129 139 103 122 112 110 114 201 231 228 215 205 188 166 128 114 124
607 644 622 358 179 200 136 118 98 111 135 132 207 232 235 215 196 188 159 121 121 124
729 664 448 417 444 141 111 95 93 138 151 141 196 210 218 221 215 194 160 130 134 121
749 818 627 279 103 115 61 90 109 148 148 150 186 201 225 243 211 185 157 129 120 123
657 278 108 62 67 48 101 103 127 131 192 187 187 189 213 216 220 190 152 121 139 147
88 70 39 41 77 93 93 97 104 129 148 178 205 189 175 174 220 190 161 133 112 121

GFSNIL_con_3kmhel_042.txt.gz
Helicity
331 399 414 423 464 519 476 426 453 464 321 180 106 152 148 128 128 147 155 149 152 171
514 508 549 553 520 503 441 523 294 378 499 264 148 138 150 135 131 140 111 105 124 148
469 519 513 472 404 384 410 413 446 415 280 195 166 122 118 115 123 115 95 127 160 153
487 426 402 406 380 373 601 418 323 179 166 172 138 115 129 126 118 110 100 132 145 152
552 514 498 469 490 401 365 308 218 213 223 183 129 93 122 111 124 114 127 145 157 151
577 558 538 511 335 389 373 303 286 263 214 137 94 118 129 124 123 138 142 179 181 157
529 464 441 484 540 540 457 367 358 270 169 143 149 118 128 141 159 176 177 182 163 138
515 584 589 574 593 608 515 549 370 238 133 163 171 139 146 198 200 206 182 171 156 138
644 650 671 650 738 696 595 567 282 136 195 137 132 98 142 226 231 203 179 174 164 145
669 741 707 808 775 732 414 128 145 138 96 100 118 126 169 206 231 214 188 169 172 147
816 930 1051 930 342 110 109 80 61 58 70 115 141 136 158 209 234 213 187 178 180 145
1015 742 431 110 48 54 45 49 72 85 93 126 139 144 182 227 248 217 180 172 157 132
290 158 97 112 69 61 95 90 92 103 105 106 143 161 185 220 262 236 206 169 150 126
103 102 96 112 127 110 99 117 116 115 123 129 163 189 177 187 259 240 213 182 166 155

GFSNIL_con_3kmhel_045.txt.gz
Helicity
140 194 242 278 330 417 455 519 552 549 571 218 224 399 380 303 200 224 140 127 116 157
230 295 363 402 520 487 599 647 503 668 304 331 422 212 227 111 208 168 127 84 78 83
354 419 473 499 546 646 712 481 433 524 396 305 233 158 189 218 168 131 95 92 91 105
457 529 550 503 523 498 481 537 404 325 249 292 232 212 245 213 164 155 165 130 109 83
477 454 526 533 535 533 544 404 304 317 333 284 277 284 250 160 182 208 217 123 108 81
450 481 510 498 483 372 369 398 299 301 266 339 295 183 135 167 194 181 144 146 141 133
483 537 488 443 456 423 432 475 348 414 501 367 140 141 163 177 158 166 172 183 181 165
587 534 483 490 480 347 560 591 720 632 221 130 153 129 131 141 170 189 208 212 190 177
571 532 549 622 743 796 912 645 178 165 149 132 110 86 84 143 194 234 243 227 212 207
678 751 783 780 733 676 284 147 148 162 108 85 91 78 91 121 217 250 253 243 239 215
828 808 735 670 480 198 92 134 140 120 86 98 104 97 104 129 231 266 252 255 257 202
604 559 484 329 75 98 145 122 150 109 125 145 133 100 113 191 247 274 260 258 245 214
619 286 67 80 124 136 130 138 126 144 146 144 153 130 135 203 294 290 257 251 249 176
85 113 134 136 140 137 132 140 149 161 170 170 172 164 146 174 296 270 261 269 247 213

GFSNIL_con_3kmhel_051.txt.gz
Helicity
164 196 237 265 218 226 206 194 285 338 366 352 404 352 264 206 128 136 179 184 158 153
210 230 198 224 223 243 236 251 321 356 478 464 383 270 319 225 148 240 210 136 162 187
179 189 196 200 236 250 226 260 302 451 440 397 306 244 215 264 366 240 115 177 197 174
152 164 208 210 231 251 273 395 402 398 355 401 355 169 271 421 168 110 160 161 131 95
178 185 205 220 261 315 312 310 367 380 299 348 258 541 328 142 103 139 116 92 121 96
172 187 201 226 210 177 230 292 365 372 348 411 265 212 148 102 110 97 85 93 102 113
197 173 148 191 197 200 224 294 336 379 371 344 135 161 124 104 96 91 85 99 124 128
171 177 193 230 252 346 334 432 399 542 234 192 185 151 109 79 73 81 105 125 148 158
244 257 307 339 384 359 485 453 453 251 151 148 135 103 82 67 92 109 137 146 157 159
273 322 332 359 415 375 440 289 251 133 127 102 74 77 72 83 125 155 163 165 180 188
324 331 328 387 382 246 238 132 106 99 76 77 72 83 100 117 148 175 165 180 178 185
311 279 258 239 147 125 88 90 95 88 86 100 93 110 119 139 170 195 193 192 187 196
207 179 177 143 104 97 107 100 101 99 100 111 113 116 121 155 208 227 226 193 196 210
207 209 169 138 128 120 112 103 99 100 105 114 130 141 150 164 211 239 244 266 248 229

GFSNIL_con_3kmhel_054.txt.gz
Helicity
114 100 122 127 119 170 186 255 170 180 179 267 255 317 308 314 295 189 170 88 102 116
113 102 128 122 135 130 198 258 268 269 324 170 274 386 500 441 295 183 133 143 78 133
72 71 99 137 152 149 250 298 290 296 184 214 416 424 362 350 368 266 169 61 117 131
69 56 108 180 203 231 257 232 232 209 349 372 482 422 457 259 236 170 54 112 122 132
125 132 152 187 200 228 217 187 174 312 379 367 387 357 276 312 135 52 74 97 107 95
177 167 171 178 176 199 183 193 232 270 263 305 368 270 189 136 61 60 82 96 103 103
188 185 183 172 172 188 232 195 191 273 307 350 324 295 123 50 37 73 101 107 95 102
254 232 219 201 192 203 213 186 306 305 338 278 242 128 98 98 98 96 90 83 101 111
244 242 227 236 220 275 271 281 352 252 239 156 121 131 103 85 88 80 90 112 107 125
229 224 213 207 242 245 223 254 178 152 139 113 112 72 84 93 94 107 120 132 162 174
198 201 217 218 210 154 127 76 86 91 72 75 85 122 97 107 118 135 141 156 178 189
177 175 163 133 95 106 88 95 93 104 109 96 84 127 112 127 153 172 177 191 195 204
160 160 140 126 141 128 123 118 106 101 97 109 106 131 157 179 197 202 223 216 232 239
175 168 147 135 132 120 109 106 119 120 130 133 159 162 196 186 223 239 248 259 249 242

GFSNIL_con_3kmhel_060.txt.gz
Helicity
109 145 136 142 2 185 209 175 225 173 266 317 351 348 360 548 416 306 239 267 251 328
124 64 127 134 76 162 176 354 334 343 357 352 328 402 395 321 262 298 354 334 282 225
257 111 111 128 188 250 352 374 362 314 302 309 336 373 312 318 389 378 302 247 238 208
250 191 212 199 236 260 311 336 297 279 312 292 297 288 302 313 315 325 263 183 211 155
314 237 200 275 298 286 301 287 297 293 308 340 369 394 340 293 255 236 198 151 164 162
365 387 362 318 318 326 325 303 288 303 338 365 368 325 282 262 250 176 168 192 179 121
384 339 308 300 302 298 309 325 329 309 291 311 250 238 241 216 161 145 163 143 117 127
300 288 301 319 324 321 327 311 278 283 286 201 262 227 239 187 197 189 156 119 105 101
286 274 283 275 284 284 260 253 248 252 231 257 239 214 184 166 162 138 114 111 101 98
282 297 247 220 214 241 265 245 250 224 208 188 183 163 124 134 123 109 110 109 115 114
243 233 266 294 301 268 247 234 192 174 155 151 207 215 196 131 87 131 144 143 143 159
273 284 275 273 282 270 217 169 141 138 168 299 293 249 195 178 182 167 152 140 154 165
219 259 280 246 193 170 165 226 239 252 246 237 240 227 196 155 140 173 155 137 114 117
253 236 216 253 216 225 276 306 269 262 234 246 258 233 218 202 160 166 141 133 129 127

GFSNIL_con_3kmhel_063.txt.gz
Helicity
48 48 164 233 150 273 278 263 248 257 186 201 212 275 317 334 396 399 333 262 253 273
60 69 225 294 302 248 221 206 266 263 237 193 252 298 308 324 373 279 213 268 237 222
151 129 188 333 263 169 143 154 304 330 324 330 311 283 315 324 289 290 261 229 196 159
100 146 356 288 140 74 118 277 372 343 328 299 300 281 292 289 256 282 291 205 236 247
389 202 287 142 232 317 284 289 316 318 293 297 301 298 317 319 283 326 265 185 252 174
433 311 378 460 365 295 299 302 300 298 315 333 335 312 330 232 213 230 273 235 150 144
462 381 358 368 336 323 290 298 303 297 319 331 337 307 292 189 302 289 252 189 153 151
388 367 351 325 321 317 302 303 311 350 366 337 325 312 249 294 274 248 216 167 139 134
356 336 315 315 320 332 344 342 348 351 337 334 303 266 264 275 245 203 179 148 141 124
378 358 335 350 360 341 344 340 322 296 293 263 268 245 228 203 201 174 157 177 190 177
353 354 342 350 338 353 321 288 255 235 252 302 240 241 207 190 199 200 196 188 182 168
383 381 350 315 302 272 241 205 191 227 331 329 326 295 269 234 209 198 186 159 153 168
310 304 300 290 243 209 184 214 333 352 347 330 304 250 224 207 165 191 167 137 136 150
314 300 269 245 220 255 363 428 426 378 285 280 243 238 242 217 173 148 140 150 152 147

GFSNIL_con_3kmhel_066.txt.gz
Helicity
-33 -72 -49 -21 43 74 84 78 138 198 199 193 200 226 253 255 263 304 305 315 250 220
-12 -13 -26 23 80 128 181 184 176 199 232 241 231 206 246 258 261 279 246 256 199 217
52 27 35 102 195 260 270 185 95 145 149 244 247 251 253 245 242 268 267 219 173 214
108 118 180 260 257 241 308 88 41 148 200 251 266 298 299 257 304 301 289 238 231 251
311 288 287 333 278 124 55 -71 3 145 187 282 290 313 315 340 314 342 327 249 208 286
303 214 76 249 214 120 219 183 182 238 314 327 311 341 339 307 326 313 248 192 273 241
317 197 40 214 260 215 267 305 294 283 318 331 352 368 353 334 253 284 212 239 263 241
248 216 340 413 347 358 315 307 315 355 369 353 352 343 287 345 236 301 208 296 262 236
354 372 411 415 409 401 363 378 388 384 356 352 329 311 335 307 351 292 319 315 292 266
424 437 422 421 409 386 400 413 403 362 357 347 355 349 361 365 356 341 303 287 268 248
425 446 440 419 400 388 385 358 338 381 390 413 374 361 354 349 328 323 295 265 234 222
448 451 415 381 369 362 382 411 441 407 408 407 352 349 343 334 308 289 269 237 228 225
441 392 376 385 360 348 381 424 402 401 356 374 402 363 329 302 274 304 273 259 250 242
387 390 349 314 320 379 437 435 393 403 403 424 378 345 317 277 277 269 260 234 215 189

GFSNIL_con_3kmhel_069.txt.gz
Helicity
-36 -32 -27 -50 -72 -127 -115 -93 -70 51 71 120 190 207 143 115 193 220 220 241 272 261
5 28 9 -62 -66 -62 -36 16 41 84 107 144 174 191 143 215 201 231 241 226 224 209
49 25 13 -48 -5 34 39 48 94 67 29 65 123 209 210 227 234 233 247 236 262 231
65 48 63 38 95 168 187 177 176 159 154 26 129 177 178 232 235 249 266 260 245 227
148 112 76 75 203 278 261 200 113 -144 12 39 100 136 222 305 300 303 272 282 303 326
220 195 194 252 218 227 245 111 132 83 13 36 124 215 295 324 296 315 331 289 255 332
55 162 242 358 194 224 277 215 181 151 190 189 219 316 346 320 333 380 359 325 295 318
134 230 348 330 175 188 237 198 155 154 215 270 307 338 369 378 420 438 376 254 358 408
338 309 327 323 285 242 278 288 264 272 302 345 364 364 387 419 453 440 325 431 454 463
336 276 277 283 292 316 331 394 369 367 382 404 376 354 393 439 423 433 440 409 417 371
359 319 338 341 348 414 423 428 402 404 418 416 386 419 458 498 489 482 438 383 354 322
351 357 375 420 423 431 465 476 448 440 428 445 449 457 462 476 461 429 394 347 313 284
309 292 334 414 432 420 419 467 480 483 463 469 469 439 423 421 412 394 371 329 298 277
328 348 392 444 438 447 494 510 518 543 501 493 458 442 413 384 365 375 368 330 305 280

GFSNIL_con_3kmhel_072.txt.gz
Helicity
-81 -106 -143 -183 -163 -168 -174 -99 -140 -156 -36 11 86 104 135 184 147 122 119 142 209 221
-57 -60 -100 -128 -170 -188 -181 -176 -192 -152 -106 -14 70 44 72 68 107 92 41 138 201 224
59 30 10 -4 -24 -43 -39 -18 -10 -35 8 31 77 68 75 79 166 118 230 228 195 217
164 130 95 65 42 37 27 43 46 65 62 58 124 145 119 109 126 154 236 233 206 211
227 208 157 176 139 171 119 130 115 143 97 109 227 277 124 87 170 187 222 255 272 252
189 173 158 314 124 164 183 172 140 177 88 160 142 61 36 112 186 206 266 301 326 354
200 170 204 271 228 206 257 217 156 72 158 202 155 116 129 161 202 294 315 312 360 333
223 130 126 188 226 249 240 184 122 55 134 155 120 156 207 256 326 369 390 362 432 485
194 157 126 169 211 216 241 228 229 205 211 181 179 184 235 307 341 361 415 541 539 498
207 182 158 132 201 236 268 317 284 280 285 223 223 229 281 335 387 448 514 503 527 439
215 228 298 301 281 316 350 318 304 302 322 349 309 340 420 488 517 548 520 478 437 441
266 311 350 315 304 310 334 323 301 332 357 393 412 442 464 516 520 529 517 485 448 410
357 323 273 287 310 310 311 381 415 464 431 426 485 438 422 435 467 497 473 449 436 394
250 252 256 295 303 349 443 502 506 537 536 546 432 421 411 418 418 400 409 419 397 357

GFSNIL_con_3kmhel_075.txt.gz
Helicity
-25 -21 2 47 62 52 63 42 10 -7 -19 -21 -23 1 -2 24 46 70 95 100 104 115
1 -16 -36 -34 -41 -43 -29 -24 -25 -25 -50 -57 -63 -59 -15 38 42 59 81 74 80 157
42 19 -12 -43 -52 -45 -83 -92 -90 -61 -24 -22 -54 -43 0 46 45 62 100 109 171 160
98 83 54 22 2 6 -19 -7 17 26 18 19 65 78 71 55 57 44 69 145 85 124
81 117 129 116 94 92 68 74 59 67 71 103 176 229 159 160 201 185 103 167 92 166
122 61 31 18 -25 46 68 63 99 108 122 128 131 169 166 161 189 225 128 97 159 221
155 147 122 80 96 73 107 136 63 117 104 179 148 142 126 171 147 46 57 137 214 274
198 171 139 146 155 173 159 183 141 134 157 295 118 103 145 153 194 184 229 250 307 333
165 180 208 186 201 184 185 187 169 172 208 274 142 95 85 149 213 257 290 382 418 488
144 144 164 195 189 167 147 155 160 166 201 197 197 196 188 214 261 307 389 443 521 581
141 140 127 146 167 176 176 176 214 203 204 227 218 203 256 295 371 415 419 434 469 451
123 124 196 193 222 247 226 216 229 243 247 258 240 277 366 496 495 502 527 462 485 457
220 302 285 284 244 243 248 272 276 281 270 281 343 381 461 482 527 584 547 535 437 440
264 255 274 293 287 298 314 329 355 400 400 388 398 447 421 477 512 423 439 425 426 368

GFSNIL_con_3kmhel_078.txt.gz
Helicity
103 70 42 46 71 157 162 175 52 19 -27 -79 -79 -117 -126 -86 -1 52 73 65 67 79
89 64 39 55 81 127 131 120 88 34 24 -34 -41 -68 -81 -40 21 54 46 38 58 97
88 73 52 88 115 126 125 101 118 91 44 36 17 -14 -37 -63 19 40 66 105 93 110
80 99 83 111 131 120 108 105 102 87 63 58 65 63 69 45 63 85 139 138 136 154
86 96 97 86 119 140 136 133 118 96 80 74 65 69 89 115 189 215 292 145 127 135
119 128 111 77 44 46 44 49 78 78 92 105 107 87 105 188 226 207 152 191 239 301
126 160 132 99 89 79 81 70 59 87 131 101 104 129 145 153 178 193 112 125 192 181
122 93 71 67 89 119 119 104 82 106 127 134 110 146 231 280 239 177 85 157 217 260
105 121 122 121 115 123 133 112 92 104 131 166 164 179 221 262 265 38 109 190 256 317
82 88 102 112 119 118 111 107 98 104 119 108 127 170 188 256 140 137 203 286 375 441
72 59 66 81 92 116 126 134 131 91 81 102 146 178 176 199 227 340 351 377 403 481
115 93 90 110 114 112 141 159 127 164 139 153 218 223 273 367 475 496 499 482 470 487
119 110 132 149 184 264 245 235 294 335 300 288 292 246 321 439 499 532 568 573 609 590
198 218 180 217 302 350 363 384 378 377 348 316 293 343 426 481 454 508 582 632 652 646

GFSNIL_con_3kmhel_081.txt.gz
Helicity
227 232 164 224 229 294 372 304 252 270 183 117 -7 -25 -121 -57 -10 73 93 -21 29 47
143 185 193 165 219 288 298 298 258 249 229 144 50 -17 -78 2 -16 93 0 -42 70 90
117 108 125 134 163 184 141 153 155 180 180 143 57 15 -69 -81 44 53 90 137 115 114
98 85 69 73 102 110 134 157 114 113 92 58 42 19 -6 -34 25 25 62 82 117 130
96 98 111 77 91 109 136 144 142 143 80 68 56 36 44 48 64 69 85 112 172 233
139 139 155 128 105 115 120 128 115 104 124 126 114 103 93 120 134 138 129 149 209 248
166 171 175 181 153 151 143 134 129 137 122 121 113 125 133 133 147 149 158 199 247 247
208 190 166 177 154 175 176 176 171 163 149 143 137 131 150 183 171 177 220 268 210 293
203 218 204 181 191 186 180 179 190 192 197 186 184 185 215 199 221 240 254 295 345 362
164 192 209 193 189 211 221 216 208 232 225 210 210 230 232 238 234 302 296 230 318 432
132 144 162 172 195 217 248 247 232 238 240 207 232 272 274 292 294 255 276 319 414 361
143 138 139 166 162 167 209 214 208 236 228 218 212 272 304 352 315 402 492 548 487 446
164 218 194 167 139 166 173 182 207 244 342 353 291 323 290 345 416 496 523 518 488 438
181 184 146 217 255 233 380 531 501 440 428 407 363 346 347 385 408 459 527 534 537 516

GFSNIL_con_3kmhel_084.txt.gz
Helicity
297 290 288 285 226 179 110 97 121 65 121 62 4 29 -5 136 30 125 169 99 -92 36
256 306 292 268 271 223 151 123 145 165 116 149 184 37 70 49 -15 -42 -63 129 18 -25
177 249 246 255 274 229 236 188 202 200 159 127 112 88 36 15 48 37 97 135 162 146
146 191 216 204 239 249 265 226 219 241 230 201 186 161 82 60 41 46 42 124 119 120
155 129 172 195 178 192 214 226 230 191 166 150 141 143 97 86 44 26 57 59 80 106
187 181 178 180 185 181 169 177 182 192 215 196 177 137 114 69 60 38 66 103 125 119
260 243 199 187 175 165 202 187 201 204 202 188 182 139 80 83 100 96 90 91 141 158
291 266 249 242 242 202 204 233 246 258 233 199 197 173 168 167 161 166 171 191 211 223
293 310 297 295 311 279 239 257 248 264 283 263 237 238 240 237 223 208 206 209 209 229
226 272 311 306 289 296 286 278 293 288 295 279 258 262 276 259 244 229 226 225 250 344
203 222 264 308 303 284 301 305 311 302 295 266 250 270 297 295 279 249 232 269 306 352
199 169 193 232 266 279 279 280 296 287 272 261 218 223 250 335 340 289 425 539 549 482
187 164 172 193 201 218 239 237 235 217 301 319 253 344 264 292 448 555 590 596 573 513
229 197 161 196 228 246 237 328 457 548 566 485 447 462 393 420 477 546 627 617 605 566

GFSNIL_con_3kmhel_087.txt.gz
Helicity
231 228 186 166 89 83 106 117 89 97 87 47 59 86 84 98 71 140 151 90 83 157
223 251 213 166 138 111 85 86 77 89 53 28 2 16 40 50 54 60 41 62 105 137
187 202 209 210 188 160 150 110 78 68 53 21 10 22 23 13 31 6 28 -1 100 127
192 187 180 190 181 212 203 186 165 135 77 51 43 49 52 76 90 61 82 116 129 148
162 204 201 186 180 178 185 191 201 178 168 142 104 88 69 94 99 96 94 92 111 76
168 195 221 205 188 186 197 196 196 199 205 190 160 141 126 103 93 121 117 154 148 127
228 196 193 229 227 225 221 208 222 230 207 172 156 155 175 183 157 134 129 143 133 149
312 267 221 204 250 246 248 251 224 221 204 186 171 182 201 201 186 160 128 107 118 163
345 358 356 320 300 280 277 278 237 230 219 206 204 212 226 218 203 179 167 161 196 225
336 332 345 359 335 346 342 303 306 282 249 250 233 228 256 285 264 220 183 193 214 222
302 294 332 329 379 380 370 368 343 329 348 328 315 323 288 301 280 247 218 231 246 289
140 232 284 274 307 359 389 389 378 367 353 346 302 318 313 318 271 255 240 308 405 326
242 163 235 291 301 356 364 345 354 328 352 345 307 356 311 330 311 298 466 516 505 504
189 242 359 250 225 335 352 329 348 461 553 553 517 501 465 301 390 448 588 617 638 612

GFSNIL_con_3kmhel_090.txt.gz
Helicity
150 143 143 156 99 55 62 42 59 88 105 117 83 102 126 153 194 201 146 106 107 192
137 121 105 123 80 70 34 38 74 93 88 38 14 -14 -23 78 95 83 21 64 127 161
128 105 91 106 105 111 100 79 81 116 67 21 -5 -23 -24 -47 -29 -11 -5 13 36 116
139 123 89 93 88 113 129 144 140 133 109 56 53 35 15 9 -3 11 21 61 85 80
142 132 122 102 86 80 119 133 137 137 157 145 83 47 53 35 27 51 80 105 104 62
164 163 149 127 111 112 95 108 120 132 132 124 107 85 58 46 51 56 41 61 84 74
183 207 193 174 164 153 165 157 151 142 128 117 107 104 111 90 66 54 65 68 80 103
191 192 209 206 194 190 180 182 184 182 159 128 131 150 162 163 152 143 148 167 181 201
270 219 198 206 234 227 237 237 231 237 226 208 199 166 176 182 179 179 163 143 167 182
165 198 220 244 247 241 259 275 303 295 278 254 230 230 238 237 202 173 174 175 161 152
161 134 192 264 301 306 309 278 274 297 297 273 260 282 287 284 238 201 177 181 180 181
227 159 179 147 229 277 302 320 355 308 270 234 217 263 304 336 267 239 222 232 235 236
157 151 153 212 236 136 234 292 352 335 342 314 260 270 275 341 345 293 294 251 392 414
132 106 113 116 147 237 302 206 293 345 503 533 515 465 454 295 369 360 373 412 536 514

GFSNIL_con_3kmhel_096.txt.gz
Helicity
166 159 166 139 148 126 56 50 89 128 172 167 230 251 401 475 557 476 414 283 384 294
144 149 167 126 115 129 71 67 80 121 148 188 195 252 269 355 299 144 114 215 228 81
132 118 120 133 118 103 99 94 110 148 132 137 128 136 111 150 126 58 99 104 104 94
115 106 101 97 95 81 77 109 124 122 136 141 124 131 123 137 122 113 124 127 143 168
96 92 86 72 74 83 60 56 83 102 119 142 151 163 124 115 85 90 117 175 106 131
76 89 86 80 81 84 82 73 68 102 122 129 127 141 129 138 147 132 111 126 108 81
106 90 102 106 97 99 101 96 95 98 106 117 130 147 149 156 156 138 108 97 119 91
109 101 113 117 118 112 119 110 115 123 134 143 147 144 163 173 164 170 147 119 105 96
83 89 92 89 94 133 133 140 148 145 147 155 167 164 176 197 204 215 204 171 166 144
126 79 79 102 111 111 118 138 158 166 167 161 170 189 202 199 199 194 201 202 215 226
210 219 239 219 94 77 119 120 104 121 143 172 198 228 230 224 212 193 187 205 219 231
165 162 170 191 218 213 235 201 149 151 125 97 130 372 266 195 217 230 213 203 212 240
130 139 157 171 173 170 165 198 216 305 396 396 383 309 259 211 220 194 209 137 152 256
160 130 128 116 128 140 135 151 188 230 274 336 419 370 321 256 155 189 263 261 270 282

GFSNIL_con_3kmhel_099.txt.gz
Helicity
110 116 89 98 96 111 60 13 5 27 106 159 168 158 206 256 252 217 357 404 445 358
110 108 87 83 65 76 50 12 10 37 42 89 104 113 139 203 224 316 472 496 448 198
97 98 77 68 59 37 37 29 40 45 56 63 95 100 145 147 175 348 384 448 231 102
97 92 78 54 44 42 27 33 36 69 85 76 65 96 118 123 170 186 205 79 17 36
94 88 77 52 41 36 32 34 24 43 56 78 80 77 88 108 88 94 86 44 22 11
75 74 65 55 48 40 38 37 47 45 71 84 91 100 104 133 154 157 123 121 110 94
66 57 58 60 56 49 39 43 51 63 70 92 114 141 139 126 117 105 109 108 105 109
70 89 89 57 54 56 53 45 43 52 49 59 78 93 107 142 161 155 137 115 93 102
73 77 86 82 50 47 46 40 39 43 56 71 89 110 130 106 109 128 121 109 96 93
170 124 116 90 75 57 37 32 28 24 31 40 57 100 122 128 92 94 109 117 129 132
175 185 179 182 181 159 89 35 66 74 87 69 176 163 18 93 134 135 128 128 117 133
199 196 187 185 196 204 195 238 283 314 373 320 368 350 291 197 154 127 121 105 106 172
158 163 178 185 192 175 176 209 224 261 339 381 365 393 293 151 134 154 202 296 288 317
117 132 140 134 151 145 148 161 194 213 239 276 325 314 320 273 176 191 304 355 334 344

GFSNIL_con_3kmhel_102.txt.gz
Helicity
129 115 92 64 77 102 81 60 30 17 25 54 67 100 204 168 237 182 258 240 341 259
135 117 81 63 80 116 90 51 13 16 49 71 53 54 62 119 124 190 272 241 277 232
140 107 89 66 76 92 91 45 20 17 24 69 74 91 69 82 85 169 165 178 278 311
132 106 91 60 76 73 80 59 30 18 19 31 57 63 64 98 135 134 190 229 326 355
127 113 93 71 67 64 56 59 34 24 32 32 21 36 53 68 68 76 110 135 157 128
134 103 95 83 71 57 47 41 33 21 36 50 48 46 42 48 45 63 78 86 69 5
128 104 113 99 86 70 54 37 18 7 13 18 31 33 27 32 42 26 31 41 47 79
151 128 120 113 98 85 68 50 36 26 17 27 31 40 54 61 61 58 64 75 70 62
160 133 100 108 107 91 73 60 51 42 32 35 43 59 71 39 60 69 78 87 117 124
368 301 293 146 141 100 82 66 62 58 53 63 120 184 71 46 22 69 78 76 82 98
366 377 397 278 162 173 174 172 159 163 121 199 200 156 107 57 18 -40 -20 53 99 130
262 295 309 209 196 181 123 144 165 179 249 289 249 271 211 154 104 94 94 208 248 177
217 236 207 180 166 182 198 210 194 232 277 311 306 339 281 178 138 186 286 308 281 328
95 97 155 162 159 168 173 187 225 239 247 269 282 289 308 298 256 311 384 410 401 330

GFSNIL_con_3kmhel_105.txt.gz
Helicity
102 153 150 136 116 94 138 101 125 132 100 86 126 126 82 92 134 121 182 101 93 63
143 128 143 155 121 102 118 134 103 84 50 131 73 65 113 106 98 188 253 92 184 191
151 121 133 135 118 135 128 109 104 96 65 65 76 78 103 108 118 101 148 196 137 191
140 155 127 135 118 144 100 84 87 96 100 93 91 86 80 102 112 82 65 123 163 175
160 148 125 130 121 127 98 75 81 92 96 48 39 61 79 76 77 70 80 83 104 126
203 182 153 118 137 149 88 78 82 62 70 56 36 29 33 52 56 58 59 79 124 121
288 201 146 113 151 127 108 95 88 72 72 59 40 23 23 21 31 30 30 46 56 64
290 243 194 176 162 130 129 112 90 92 77 62 43 18 18 24 25 8 32 45 31 28
270 236 220 192 177 170 154 121 106 98 84 73 71 147 53 32 32 22 24 34 31 24
527 441 404 281 204 163 154 139 135 137 111 188 182 217 174 113 39 57 56 61 60 58
481 474 439 386 367 323 313 442 244 257 280 231 223 226 198 172 84 51 61 93 121 138
475 453 426 478 422 384 437 361 286 291 305 244 211 232 188 132 89 123 191 180 160 130
316 298 401 391 367 386 448 294 339 342 338 291 224 277 251 182 201 275 288 295 272 244
159 212 163 262 252 169 147 204 214 182 268 311 308 285 271 238 261 267 298 276 266 238

GFSNIL_con_3kmhel_108.txt.gz
Helicity
202 277 212 194 240 183 171 188 190 235 225 210 176 167 141 132 104 120 88 54 98 55
233 242 192 261 188 152 216 156 174 188 232 217 148 132 141 108 119 98 98 98 92 155
237 178 212 186 176 189 234 204 164 153 140 173 162 191 168 113 108 111 118 168 200 187
243 211 222 216 200 261 348 270 185 144 125 154 163 196 155 133 132 114 108 128 175 206
282 243 241 209 218 291 238 210 155 139 130 134 159 156 145 141 124 123 111 99 47 95
266 190 230 195 244 210 181 186 142 112 125 104 95 94 124 139 114 95 89 72 87 69
191 202 183 208 269 228 178 178 139 110 112 118 87 68 61 66 65 60 49 46 50 65
140 159 228 242 263 214 190 171 172 173 161 154 116 115 59 44 31 24 24 21 26 30
264 315 304 343 273 227 188 181 170 162 141 140 203 187 141 85 61 57 42 34 28 30
543 597 559 555 427 340 283 183 212 233 294 298 257 258 189 144 98 142 161 143 150 151
583 639 715 644 558 543 447 414 430 423 329 269 278 272 239 185 168 201 183 194 185 174
589 638 734 733 598 558 582 503 471 429 405 366 377 353 282 193 257 267 240 230 221 193
243 254 448 520 573 527 608 541 530 648 622 532 426 423 349 266 280 323 299 262 246 273
138 116 177 229 202 306 353 297 378 411 351 405 298 310 278 272 270 255 288 278 292 297

GFSNIL_con_3kmhel_114.txt.gz
Helicity
192 376 343 338 358 357 311 279 296 305 274 275 265 269 260 233 192 161 141 156 171 239
186 353 362 355 331 315 263 237 284 291 267 246 245 266 259 222 172 150 153 114 159 200
258 327 391 363 312 293 262 207 229 235 241 220 225 235 243 201 157 160 127 129 148 176
153 278 419 359 312 330 278 165 198 215 209 221 185 203 215 194 169 159 131 118 127 116
243 251 327 311 279 321 287 205 180 213 172 184 174 202 205 200 173 170 154 115 117 99
390 264 220 253 265 301 312 245 204 187 166 136 160 189 154 169 175 152 126 114 97 100
296 305 167 183 263 314 268 223 225 202 158 143 159 137 143 172 174 154 132 115 126 107
277 315 294 164 212 292 274 240 251 211 172 158 170 173 160 169 143 137 137 111 118 112
247 290 367 442 360 267 313 286 264 188 174 245 242 229 238 160 151 144 126 112 103 98
306 301 333 362 632 579 549 447 435 369 311 283 261 217 228 218 152 149 143 128 104 103
322 262 266 420 618 778 705 638 556 485 399 329 348 318 183 247 279 293 278 255 234 198
225 248 280 328 339 368 468 641 697 532 537 446 408 406 331 331 378 396 357 336 316 261
123 87 190 178 163 91 302 264 447 481 578 588 502 490 478 527 498 468 415 410 388 380
63 91 75 70 146 192 183 172 192 295 423 593 531 608 465 450 522 554 570 421 339 333

GFSNIL_con_3kmhel_117.txt.gz
Helicity
201 199 207 226 230 283 284 310 379 331 252 227 251 252 242 261 268 240 218 209 167 121
194 171 229 218 268 280 289 317 393 342 278 253 249 265 253 267 253 222 204 160 126 134
301 160 191 257 246 259 278 321 340 298 270 272 251 271 256 251 248 218 182 161 124 109
302 173 190 271 281 270 310 300 267 254 237 218 245 266 241 232 234 203 168 168 147 107
279 368 151 198 222 262 286 271 223 221 222 216 200 257 213 209 213 182 163 141 140 127
293 309 339 195 197 245 259 239 229 236 220 203 211 225 161 184 205 189 168 139 139 132
274 239 232 249 137 177 205 207 224 242 226 175 175 173 147 175 185 169 154 156 143 127
246 216 202 200 227 185 135 174 220 249 204 146 108 136 150 162 169 171 155 154 134 132
322 280 243 193 212 290 324 266 212 231 280 152 295 325 145 129 147 152 164 152 139 141
314 326 296 186 163 216 372 535 642 660 489 348 335 317 248 147 146 157 149 167 148 145
284 349 333 247 271 190 210 437 745 647 606 421 407 292 178 210 195 242 271 289 265 205
141 184 212 262 255 202 134 184 321 449 465 388 439 333 339 289 320 358 373 359 343 279
37 49 81 108 178 186 227 239 216 388 574 492 304 326 256 307 404 505 500 524 423 398
44 37 36 27 38 81 121 200 204 131 182 222 288 290 276 287 323 392 514 568 595 513

GFSNIL_con_3kmhel_120.txt.gz
Helicity
218 154 156 123 228 252 244 208 360 123 179 271 343 305 254 237 209 234 234 245 256 244
246 182 86 66 158 169 209 231 250 138 146 241 342 304 267 210 224 263 248 249 242 228
250 242 174 71 96 201 193 221 272 266 206 235 298 294 248 229 244 264 254 235 223 200
291 301 267 188 133 163 253 213 210 210 212 249 256 316 264 255 266 255 242 215 220 188
254 255 221 245 301 167 164 216 247 242 188 189 259 290 271 277 265 267 231 187 194 180
246 245 213 209 218 194 140 174 190 192 185 194 231 265 256 250 250 247 205 186 187 199
325 280 239 216 201 222 279 168 155 129 120 140 194 231 247 235 214 217 177 170 180 182
324 243 250 305 228 193 182 224 276 149 142 133 189 240 203 162 150 166 155 166 174 162
336 282 308 321 291 218 176 130 204 300 309 294 359 422 275 167 108 135 138 150 155 156
238 249 288 286 302 310 257 253 199 247 310 374 385 576 309 196 89 109 135 143 145 145
131 164 196 237 272 235 233 219 252 280 274 303 354 364 392 366 189 255 298 309 278 144
51 70 88 127 199 211 146 201 273 283 395 374 436 609 241 272 412 349 357 299 287 240
43 55 64 37 48 55 59 127 103 176 261 405 387 417 228 191 305 384 336 321 320 375
20 19 42 48 59 49 40 52 82 104 135 202 326 319 323 340 245 153 258 337 357 304

GFSNIL_con_3kmhel_126.txt.gz
Helicity
318 260 208 229 179 162 164 88 102 129 152 189 223 184 159 179 175 265 190 124 140 154
286 267 250 243 210 188 161 112 82 89 134 162 180 177 198 197 204 248 219 186 84 196
292 288 274 262 197 199 135 135 62 58 95 138 174 203 222 300 218 238 233 148 226 271
333 304 280 269 254 258 156 159 92 55 90 116 150 165 171 236 204 216 171 226 240 251
308 286 253 278 285 161 9 106 194 250 90 125 157 149 167 159 173 206 182 202 213 227
291 187 195 208 239 224 250 308 351 340 313 357 249 191 150 143 138 151 150 183 226 229
365 354 337 348 343 340 321 317 340 354 355 384 352 414 407 356 234 169 164 191 217 212
226 217 233 234 257 248 229 269 251 271 268 317 272 314 326 261 228 216 175 208 222 206
126 170 177 159 152 136 156 142 212 212 261 232 216 383 309 201 115 138 146 151 201 216
60 62 80 77 111 150 130 123 83 116 120 172 210 404 320 325 168 235 235 355 396 283
61 54 43 39 40 40 53 79 104 122 155 129 248 428 412 245 224 223 213 269 377 342
80 65 60 65 58 26 14 18 13 19 65 107 144 280 321 268 221 194 291 295 312 377
14 25 28 27 31 12 7 10 -8 4 15 42 42 138 182 186 129 174 191 216 210 344
30 24 22 13 15 14 7 6 14 12 8 26 33 56 109 110 40 72 55 73 76 118

GFSNIL_con_3kmhel_129.txt.gz
Helicity
589 339 268 301 132 37 149 208 143 117 135 152 190 192 186 216 196 191 228 172 240 206
410 428 388 414 231 350 219 240 255 177 98 91 142 164 178 167 193 204 224 187 178 187
282 248 297 234 261 275 226 194 205 246 148 65 61 105 138 149 144 186 241 247 237 280
217 222 188 208 246 271 278 312 281 279 322 217 109 44 97 136 162 181 240 213 253 246
283 242 183 184 142 172 197 211 230 252 323 377 303 315 274 176 172 186 198 191 204 211
250 202 235 241 245 160 146 164 248 290 271 267 297 296 232 272 343 265 198 196 189 183
286 246 162 179 170 199 106 147 118 176 149 192 305 298 369 293 268 269 293 200 180 169
317 293 246 269 300 259 335 251 284 257 240 225 234 283 297 276 223 272 261 238 262 155
239 253 271 200 204 211 150 224 166 136 97 229 156 349 262 202 187 187 220 223 264 287
104 89 77 59 66 100 133 139 161 138 102 110 184 263 284 155 96 84 133 187 211 283
84 77 65 64 77 66 60 52 40 51 62 82 119 246 265 122 96 100 89 81 113 198
57 53 51 56 58 41 35 36 31 19 31 46 60 150 160 90 48 60 62 47 59 96
31 38 42 48 55 31 16 16 12 21 23 55 46 102 109 79 16 44 36 26 55 132
5 -1 5 14 17 28 19 25 31 31 27 39 51 65 113 96 16 8 -8 1 23 8

GFSNIL_con_3kmhel_132.txt.gz
Helicity
146 52 113 264 706 176 361 293 305 262 222 99 114 111 157 184 206 207 209 186 145 178
337 345 230 269 275 369 453 428 156 10 198 216 94 100 146 192 189 215 214 188 193 181
389 513 368 304 255 317 361 365 185 195 148 172 272 252 149 154 145 140 174 197 188 189
437 338 425 339 423 287 329 244 105 138 231 225 247 308 314 309 233 141 125 124 149 155
356 363 337 386 354 361 357 299 275 248 238 285 272 296 275 262 253 205 222 103 149 156
408 360 309 290 230 218 192 200 226 262 274 294 310 330 293 244 231 251 249 278 337 223
468 398 339 278 260 242 200 199 170 159 177 219 283 346 308 214 179 156 212 258 342 362
288 330 288 274 218 210 197 186 146 126 176 101 143 236 264 199 234 262 161 231 204 256
194 107 169 196 177 180 242 315 279 351 282 263 323 315 399 116 159 121 160 157 90 116
67 127 117 83 100 116 122 90 104 139 129 135 193 250 217 154 19 136 111 233 216 116
86 92 79 76 84 86 76 64 45 57 69 49 91 167 173 77 37 11 19 24 49 94
81 67 64 78 76 43 28 20 15 -7 15 33 39 123 131 74 47 43 27 10 5 20
-11 4 23 31 41 15 6 7 0 -3 -8 30 24 104 116 85 15 47 34 37 39 72
-28 -44 -50 -45 -27 -15 -22 -10 5 -3 -4 7 36 57 119 102 -1 9 4 2 11 20

GFSNIL_con_3kmhel_135.txt.gz
Helicity
128 130 116 113 162 278 102 257 61 -21 504 420 433 175 168 196 203 182 185 155 180 191
228 257 275 263 263 226 147 331 221 214 241 427 552 331 44 194 197 182 167 139 157 195
380 360 401 458 560 226 317 355 649 372 206 346 262 394 155 237 265 223 163 113 139 159
396 468 510 534 660 516 391 483 390 535 517 515 489 272 211 233 225 242 263 212 236 215
335 201 624 548 471 502 371 401 430 550 462 199 193 168 160 142 186 203 197 183 149 174
563 858 588 575 525 485 434 434 366 397 443 329 343 253 213 158 146 123 179 225 212 222
470 458 446 424 461 462 456 474 407 416 469 494 477 398 307 312 278 236 204 228 219 251
231 200 217 265 237 228 265 304 367 388 406 384 442 398 282 277 293 273 215 235 225 197
37 80 87 99 116 141 178 153 104 133 155 189 231 234 274 170 166 235 318 228 238 172
33 57 69 64 87 99 95 97 114 106 122 162 184 193 158 148 75 68 102 98 84 123
76 49 35 58 77 69 27 32 46 61 66 74 119 150 130 93 63 47 44 40 37 43
19 16 15 19 4 -8 -30 -23 -18 -12 4 20 63 123 113 67 40 43 36 17 25 36
-19 -15 1 12 4 -11 -26 -25 -31 -24 -5 47 25 102 98 44 1 29 27 27 43 88
-25 -35 -35 -22 -0 -10 -9 -22 -27 -39 -30 -6 14 27 84 66 -39 -36 -47 -36 -16 -7